Regional Weather Roundup
Issued by NWS

Home | Current Version | Previous Version | Graphics & Text | Print | Product List | Glossary Off
Versions: 1 2 3 4 5 6 7 8 9 10 11 12 13 14 15 16 17 18 19 20 21 22 23 24 25 26 27 28 29 30 31 32 33 34 35 36 37 38 39 40 41 42 43 44 45 46 47 48 49 50

000
ASUS43 KOAX 181510
RWRNE

WEATHER ROUNDUP FOR NEBRASKA
NATIONAL WEATHER SERVICE OMAHA NE
900 AM CST MON DEC 18 2017

NOTES: SATELLITE DATA IS BEING USED TO AUGMENT CLOUD COVER ABOVE
       12000 FEET.
       "FAIR" INDICATES FEW OR NO CLOUDS BELOW 12,000 FEET WITH NO
       SIGNIFICANT WEATHER AND/OR OBSTRUCTIONS TO VISIBILITY.


NEZ001>004-019>022-054>056-181600-
NEBRASKA PANHANDLE

CITY           SKY/WX    TMP DP  RH WIND       PRES   REMARKS
SCOTTSBLUFF    CLOUDY    37  23  56 SW7       29.89F WCI  32
ALLIANCE       CLOUDY    27  21  78 SW5       29.87S WCI  22
CHADRON        CLOUDY    21  16  81 CALM      29.84S
GORDON         FAIR      29  19  67 W9        29.84S WCI  20
KIMBALL        CLOUDY    31  25  78 W10       29.94S WCI  22
SIDNEY         CLOUDY    27  21  78 SW13      29.94S WCI  16
$$

NEZ057>060-069>072-079>082-181600-
SOUTHWEST NEBRASKA

CITY           SKY/WX    TMP DP  RH WIND       PRES   REMARKS
NORTH PLATTE   CLEAR     22  19  89 CALM      29.95S
IMPERIAL       CLOUDY    23  18  81 W8        29.97R WCI  14
LEXINGTON      CLOUDY    24  21  87 W3        29.97R
MCCOOK         CLOUDY    23  20  88 SW9       29.99F WCI  13
OGALLALA       CLEAR     23  20  87 W8        29.95S WCI  14
$$

NEZ005>010-023>029-035>040-094-181600-
NORTH CENTRAL NEBRASKA

CITY           SKY/WX    TMP DP  RH WIND       PRES   REMARKS
VALENTINE      CLEAR     30  21  69 SW5       29.84S WCI  25
AINSWORTH      CLEAR     32  24  71 W8        29.84F WCI  25
BROKEN BOW     CLOUDY    29  20  69 W5        29.91S WCI  24
O`NEILL        CLEAR     30  25  80 SW8       29.86F WCI  23
ORD            CLOUDY    28  21  75 CALM      29.91S
THEDFORD       CLOUDY    30  20  66 W5        29.89S WCI  26
$$

NEZ041-046>049-061>064-073>077-083>087-181600-
SOUTH CENTRAL NEBRASKA

CITY           SKY/WX    TMP DP  RH WIND       PRES   REMARKS
GRAND ISLAND   CLOUDY    31  24  75 W10       29.95S WCI  22
AURORA         CLOUDY    29  25  83 W8        29.95F WCI  21
HASTINGS       CLOUDY    27  21  78 SW6       29.97R WCI  20
HEBRON         CLOUDY    30  26  83 W8        30.01R WCI  23
HOLDREGE       CLOUDY    28  24  86 W8        29.97F WCI  20
KEARNEY        CLOUDY    29  23  78 SW9       29.97R WCI  20
YORK           CLOUDY    28  28 100 SW9       29.96S WCI  20
$$

NEZ011>018-030>034-042>045-181600-
NORTHEAST NEBRASKA

CITY           SKY/WX    TMP DP  RH WIND       PRES   REMARKS
NORFOLK        CLOUDY    31  25  78 W10       29.89R WCI  22
ALBION         CLOUDY    32  24  73 CALM      29.92R
BLAIR          MOSUNNY   32  28  86 SW10      29.91S WCI  24
COLUMBUS       CLEAR     32  27  81 SW10      29.94R WCI  24
FREMONT        CLOUDY    32  27  81 SW10      29.93R WCI  24
TEKAMAH        CLEAR     31  25  78 SW7       29.91S WCI  24
WAYNE          CLOUDY    32  29  88 W7        29.88R WCI  26
$$

NEZ050>053-065>068-078-088>093-181600-
SOUTHEAST NEBRASKA

CITY           SKY/WX    TMP DP  RH WIND       PRES   REMARKS
LINCOLN        CLOUDY    33  26  75 W5        29.98R WCI  29
OMAHA EPPLEY   MOSUNNY   34  27  75 SW7       29.95R WCI  28
BEATRICE       SUNNY     32  29  90 W10       30.00R WCI  24
FALLS CITY     SUNNY     34  31  88 S12       30.01R WCI  25
NEBRASKA CITY  SUNNY     33  33  99 W15       29.98R WCI  23
PLATTSMOUTH    CLOUDY    33  31  89 SW10      29.95R WCI  25
$$

NEZ044-045-051>053-067-181600-
OMAHA AREA

CITY           SKY/WX    TMP DP  RH WIND       PRES   REMARKS
OMAHA EPPLEY   MOSUNNY   34  27  75 SW7       29.95R WCI  28
BLAIR          MOSUNNY   32  28  86 SW10      29.91S WCI  24
FREMONT        CLOUDY    32  27  81 SW10      29.93R WCI  24
MILLARD        MOSUNNY   35  29  80 W7        29.95S WCI  29
OFFUTT AFB     MOSUNNY   31  30  96 SW5       29.95R WCI  26
PLATTSMOUTH    CLOUDY    33  31  89 SW10      29.95R WCI  25
WAHOO          FAIR      32  26  78 W10       29.93F WCI  24
$$



USA.gov is the U.S. government's official web portal to all federal, state and local government web resources and services.